Flag for Russia Weather past 2 weeks in Barnaul, Russia

Now
68 °F

Broken clouds.


Feels Like: 68 °F
Forecast: 53 / 73 °F
Wind: 13 mph from Southwest

Location: Barnaul Airport

Current Time: Jul 26, 2014 at 1:16:42 PM

Latest Report: Jul 26, 2014 at 12:30 PM


Visibility: N/A

Pressure: 29.68 "Hg

Humidity: 56%

Dew point: 52 °F

Location of BarnaulLocation

Historic Weather in Barnaul — Graph

°F

Barnaul temperature yesterday

Maximum temperature yesterday: 72 °F (at 4:00 PM)
Minimum temperature yesterday: 59 °F (at 12:00 AM)
Average temperature yesterday: 64 °F

Past Weeks' High & Low Weather Summary

 TemperatureHumidityPressure
High99 °F (Jul 12, 5:00 PM)94% (Jul 13, 7:30 PM)29.86 "Hg (Jul 13, 7:30 PM)
Low55 °F (Jul 15, 5:00 AM)13% (Jul 12, 7:00 PM)29.36 "Hg (Jul 24, 6:30 AM)
Average70 °F58%29.65 "Hg
* Reported Jul 11 12:00 Noon — Jul 26 12:00 Noon, Barnaul, Weather by CustomWeather, © 2014

Note: Actual official high and low records may vary slightly from our data, if they occured in-between our weather recording intervals... More about our weather records

Advertising

Barnaul weather history for previous 24 hours

 ConditionsComfort  
Time TempWeatherWind HumidityBarometerVisibility
12:00 PM
Jul 26
66 °FBroken clouds.13 mph64%29.68 "HgN/A
11:30 AM63 °FPartly sunny.8 mph77%29.68 "HgN/A
11:00 AM64 °FBroken clouds.10 mph68%29.71 "HgN/A
10:30 AM63 °FBroken clouds.8 mph77%29.68 "HgN/A
10:00 AM64 °FBroken clouds.6 mph68%29.68 "HgN/A
9:30 AM61 °FBroken clouds.6 mph83%29.68 "HgN/A
9:00 AM59 °FBroken clouds.3 mph88%29.71 "HgN/A
8:30 AM59 °FBroken clouds.6 mph88%29.71 "HgN/A
8:00 AM59 °FLight rain. Partly sunny.3 mph88%29.71 "Hg6 mi
7:30 AM59 °FPartly sunny.6 mph82%29.68 "Hg6 mi
7:00 AM59 °FSunny.3 mph82%29.68 "Hg10 mi
6:30 AM59 °FClear.6 mph82%29.68 "Hg10 mi
6:00 AM59 °FPassing clouds.6 mph82%29.68 "HgN/A
5:30 AM59 °FPartly cloudy.6 mph77%29.68 "HgN/A
5:00 AM59 °FPartly cloudy.8 mph77%29.68 "HgN/A
4:30 AM59 °FPassing clouds.6 mph77%29.71 "HgN/A
3:30 AM59 °FClear.6 mph82%29.71 "Hg10 mi
3:00 AM59 °FClear.6 mph82%29.71 "Hg10 mi
2:30 AM59 °FClear.3 mph82%29.71 "Hg10 mi
2:00 AM59 °FClear.6 mph82%29.71 "Hg10 mi
1:30 AM59 °FClear.6 mph88%29.71 "Hg10 mi
1:00 AM59 °FClear.6 mph82%29.71 "Hg10 mi
12:30 AM59 °FClear.6 mph88%29.71 "Hg10 mi
12:00 AM61 °FClear.6 mph77%29.74 "Hg10 mi
11:30 PM
Jul 25
61 °FClear.6 mph77%29.74 "Hg10 mi
11:00 PM63 °FPassing clouds.6 mph73%29.74 "Hg4 mi
10:30 PM63 °FPartly sunny.6 mph73%29.74 "HgN/A
10:00 PM63 °FPartly sunny.6 mph73%29.74 "HgN/A
9:30 PM64 °FBroken clouds.6 mph68%29.74 "HgN/A
9:00 PM64 °FBroken clouds.3 mph68%29.74 "Hg6 mi
8:30 PM66 °FBroken clouds.3 mph64%29.74 "HgN/A
8:00 PM66 °FBroken clouds.6 mph64%29.74 "HgN/A
7:30 PM66 °FBroken clouds.8 mph60%29.74 "HgN/A
7:00 PM68 °FBroken clouds.13 mph53%29.74 "HgN/A
6:30 PM68 °FBroken clouds.10 mph56%29.74 "HgN/A
6:00 PM68 °FBroken clouds.13 mph53%29.74 "HgN/A
5:30 PM68 °FBroken clouds.15 mph49%29.74 "HgN/A
5:00 PM66 °FSprinkles. Partly sunny.13 mph52%29.74 "HgN/A
4:30 PM66 °FPartly sunny.20 mph49%29.74 "HgN/A
4:00 PM72 °FBroken clouds.15 mph47%29.74 "HgN/A
3:30 PM70 °FBroken clouds.15 mph46%29.71 "HgN/A
3:00 PM68 °FBroken clouds.15 mph49%29.74 "HgN/A
2:30 PM70 °FBroken clouds.15 mph50%29.74 "HgN/A
2:00 PM68 °FPartly sunny.13 mph56%29.74 "HgN/A
1:30 PM68 °FPartly sunny.15 mph56%29.74 "HgN/A
1:00 PM68 °FPartly sunny.10 mph53%29.74 "HgN/A
Weather by CustomWeather, © 2014

See weather overviewHow to use our weather pages